SCP
0 0 0 0 0 0 -0 0 0 0 0 0 0 0 0 -0 0 0 0 0 0 0 0 0 0 0 0 0 0 0 0 0 0 0 0 0 0 0
0 0 0 0 0 0 0 0 0 0 0 0 -0 0 0 0 0 0 0 0 0 0 0 0 0 0 0 0 0 0 0 0 0 0 0 0 0 0
0 0 0 0 0 0 0 0 0 -0 -0 -0 -0 0 0 0 0 0 0 0 0 0 0 0 0 0 0 0 0 0 0 0 0 0 0 0 0 0
-0 0 0 0 0 0 0 0 0 0 0 0 0 0 0 0 0 0 0 0 0 0 0 0 0 0 0 0 0 0 0 0 0 0 0 0 0 0
0 0 0 0 0 0 0 0 0 0 0 0 0 0 0 0 0 0 0 0 0 0 0 0 0 0 0 0 0 0 0 0 0 0 0 0 0 0
0 0 0 0 0 0 0 0 0 0 0 0 0 0 0 0 0 0 0 0 0 0 0 0 0 0 0 0 0 0 0 0 0 0 0 0 0 0
0 0 0 0 0 0 0 0 0 0 0 0 0 0 0 0 0 0 0 0 0 0 0 0 0 0 0 0 0 0 0 0 0 0 0 0 0 0
0 0 0 0 0 0 0 0 0 0 0 0 0 0 0 0 0 0 0 0 0 0 0 0 0 0 0 0 0 0 0 0 0 0 0 0 0 0
0 0 0 0 0 0 0 0 0 0 0 0 0 0 0 0 0 0 0 0 0 0 0 0 0 0 0 0 0 0 0 0 0 0 0 0 0 0
0 0 0 0 0 0 0 0 0 0 0 0 0 0 0 0 0 0 0 0 0 0 0 0 0 0 0 0 0 0 0 0 0 0 0 0 0 0
0 0 0 0 0 0 0 0 0 0 0 0 0 0 0 0 0 0 0 0 0 0 0 0 0 0 0 0 0 0 0 0 0 0 0 0 0 0
0 0 0 0 -0 0 0 0 0 -0 -0 -0 0 0 0 0 0 0 0 0 0 0 0 0 0 0 0 0 0 0 0 0 0 0 0 0 0 0
0 0 0 0 0 0 0 0 0 0 -0 0 0 0 0 0 0 0 0 0 0 0 0 0 0 0 0 0 0 0 0 0 0 0 0 0 0 0
0 0 0 0 0 0 0 -0 -0 0 -0 -0 0 0 0 0 0 0 0 0 0 0 0 -0 0 0 0 0 0 0 0 0 0 0 0 0 0 0
0 0 0 0 0 0 0 0 0 0 -0 -0 0 0 0 0 0 0 0 0 0 0 0 0 0 0 0 -0 0 0 0 0 0 0 0 0 0 0
0 0 0 0 0 0 0 0 0 0 0 0 0 0 0 0 0 0 0 0 0 0 0 0 0 0 0 0 0 0 0 0 0 0 0 0 0 0
0 0 0 0 0 0 0 0 0 0 0 0 0 0 0 0 0 0 0 0 0 0 0 0 0 0 0 -0 0 0 0 0 0 0 0 0 0 0
0 0 0 0 0 0 0 0 0 0 0 0 0 0 0 0 0 0 0 0 0 0 -0 0 0 0 0 0 -0 0 0 0 0 0 0 0 0 0
0 0 0 0 0 0 0 0 0 0 0 0 0 0 0 0 0 0 0 0 0 0 -0 -0 0 0 0 0 0 -0 -0 -0 0 0 0 0 0 0
0 0 0 0 0 0 0 0 0 0 0 0 0 0 0 0 0 0 0 0 0 0 0 0 0 -0 0 0 0 -0 -0 -0 -0 0 0 0 0 0
0 0 0 0 0 0 0 0 0 0 0 0 0 0 0 0 0 0 0 0 0 0 0 0 0 0 0 0 0 0 0 -0 -0 0 0 0 0 0
0 0 0 0 0 0 0 0 0 0 0 0 0 0 0 0 0 0 0 0 0 0 0 0 0 0 0 0 0 -0 0 0 0 -0 -0 -0 0 0
0 0 0 0 0 0 0 0 0 0 0 0 0 0 -0 0 0 0 0 0 0 0 0 0 0 0 0 0 0 0 0 -0 -0 -0 -0 -0 -0 -0
Wind_Speed_500mb
26 30 33 32 29 28 23 17 14 18 29 28 22 18 13 10 13 19 31 36 34 33 32 33 35 37 38 40 43 48 49 48 49 47 45 45 51 44
43 37 33 30 28 28 28 27 28 23 14 13 12 18 18 29 34 39 39 39 43 42 44 44 45 46 47 45 44 43 44 43 42 41 39 37 38 39
25 26 24 21 19 18 16 15 12 12 11 1 10 18 22 30 24 26 28 32 26 38 45 42 45 48 52 56 57 54 52 51 50 50 47 45 45 43
22 21 19 14 12 13 13 12 12 14 11 9 11 16 15 16 23 30 22 23 28 35 44 42 46 50 51 53 57 62 66 62 58 59 57 55 52 53
19 18 17 16 14 11 8 10 12 12 11 13 16 16 13 20 22 25 27 29 34 33 38 38 45 45 44 48 51 50 59 62 65 66 64 66 64 62
19 18 17 17 15 14 14 17 17 17 16 15 17 16 19 23 26 28 33 29 36 34 41 40 38 39 40 45 43 45 46 55 58 57 60 71 71 69
20 22 24 23 20 15 13 17 17 15 15 18 20 21 18 27 31 33 36 36 38 34 33 36 33 32 34 36 38 36 44 45 54 59 53 54 59 67
20 19 22 22 29 29 27 23 22 20 18 19 21 24 26 30 31 34 39 40 40 30 36 39 36 37 31 31 38 37 44 38 39 50 57 53 47 58
25 22 17 21 22 20 27 30 30 34 29 23 23 26 31 32 35 36 37 38 41 42 43 46 38 36 31 32 38 36 40 40 38 37 44 55 51 48
30 28 26 27 31 25 24 22 22 23 29 28 29 30 31 37 36 35 40 43 43 39 39 42 35 32 28 35 40 34 33 38 36 33 34 46 55 50
28 36 27 28 33 31 24 25 26 29 29 39 36 39 41 37 38 36 31 37 39 39 38 41 39 33 28 31 34 28 26 23 24 26 27 29 46 52
23 27 35 35 37 38 29 29 33 34 33 33 32 35 37 39 35 33 37 44 45 44 28 33 37 31 31 23 19 13 9 16 18 20 19 20 22 31
20 21 25 35 40 40 38 35 37 34 31 32 36 38 40 32 32 35 32 36 44 49 40 39 36 34 32 35 29 23 17 19 15 21 20 19 22 25
19 20 25 33 39 41 38 36 29 32 28 32 36 40 37 37 45 38 34 36 37 42 42 40 42 31 33 31 28 19 14 18 17 15 17 18 19 24
14 22 27 30 36 32 42 42 32 26 30 31 36 49 37 42 40 45 50 41 45 29 26 25 31 29 27 30 30 27 25 22 20 20 17 15 16 18
20 22 25 28 30 34 31 25 22 26 29 30 36 39 42 38 41 44 51 42 42 31 20 18 22 16 24 23 25 25 22 20 16 22 15 13 17 16
18 19 17 23 27 31 25 24 22 26 30 31 33 44 39 43 39 44 41 37 45 47 35 21 17 11 5 14 19 21 20 18 23 23 24 16 13 13
13 15 17 22 26 28 26 27 23 26 32 33 33 35 39 51 40 40 38 38 36 45 43 25 14 15 11 7 14 11 15 14 17 14 15 13 15 12
12 15 18 21 24 26 25 25 22 26 32 29 36 34 36 42 40 40 40 39 36 30 36 27 19 23 21 4 14 14 8 8 5 5 10 12 13 14
12 15 17 18 21 24 24 23 23 25 29 30 30 34 36 40 39 41 38 42 32 32 31 29 27 24 17 12 14 17 16 19 18 15 11 9 10 11
12 15 15 15 18 20 21 20 23 23 30 29 30 30 40 43 40 36 37 43 35 30 28 29 26 24 20 11 14 17 17 17 15 8 7 4 6 11
11 12 12 12 16 18 19 20 22 24 28 30 32 30 32 50 38 34 35 37 39 29 25 24 19 11 10 14 16 18 18 21 22 20 19 19 13 9
8 10 12 12 13 16 18 20 21 22 25 28 27 29 32 37 42 36 32 35 35 33 27 32 28 24 21 19 12 9 14 15 19 18 23 23 23 23
Wind_Direction_500mb
69 80 79 67 57 48 36 48 89 66 46 31 30 16 356 329 312 285 274 278 274 271 269 266 264 264 264 263 259 258 257 254 252 249 250 253 265 253
78 72 62 58 54 47 46 41 39 47 57 14 331 318 300 271 273 273 278 278 277 274 271 269 266 265 263 261 259 257 256 252 249 241 240 250 260 268
64 57 56 53 51 46 36 38 37 34 38 301 291 266 258 262 261 268 279 283 285 289 280 276 275 273 267 263 259 256 254 252 246 243 241 246 251 256
56 55 56 44 27 18 7 342 327 317 309 282 278 270 271 266 272 279 282 277 275 277 284 281 276 276 278 275 265 257 253 252 251 249 247 246 251 258
49 36 34 19 7 350 349 341 330 331 326 318 304 304 287 287 281 296 291 290 292 289 299 303 298 284 278 275 273 267 256 255 251 249 248 249 251 252
43 44 41 39 30 19 11 15 4 352 346 335 323 317 308 294 300 299 303 296 291 287 292 292 291 297 295 275 274 274 271 255 254 254 254 253 253 251
52 46 42 36 32 35 35 23 16 357 341 332 321 314 310 311 305 303 298 297 298 295 291 291 293 288 285 287 290 286 276 274 260 256 256 261 252 247
51 44 29 33 12 13 14 9 8 17 1 344 329 321 315 309 308 306 302 303 300 291 300 291 291 290 277 277 269 258 270 282 279 260 255 256 249 242
53 51 41 23 34 23 8 11 359 2 355 355 330 321 316 311 310 308 304 302 295 294 292 287 285 283 282 286 272 272 269 276 281 274 256 244 242 240
55 50 46 37 35 42 21 13 7 356 346 345 334 325 316 311 308 305 303 300 296 296 300 289 294 284 281 286 282 282 274 277 281 275 269 251 240 245
50 51 47 33 32 31 17 6 360 350 358 344 355 352 346 342 332 324 312 303 299 296 299 295 293 294 286 279 281 265 273 283 283 280 283 254 241 237
44 30 26 28 22 14 20 5 356 352 359 1 355 346 338 327 323 320 311 308 303 303 296 298 293 300 303 283 276 257 297 316 305 294 283 259 247 234
29 21 8 11 10 9 13 357 357 10 1 352 351 346 344 343 342 331 321 314 303 295 294 292 289 290 280 275 281 290 278 284 305 319 290 265 247 233
12 2 354 360 9 6 1 360 17 16 356 353 352 353 349 344 347 350 344 335 318 299 296 287 284 281 280 282 276 275 276 288 289 280 296 272 248 238
351 351 355 3 7 360 347 2 13 358 355 356 352 0 347 349 357 355 351 347 340 333 313 314 276 273 271 274 278 277 278 272 280 285 267 279 257 247
346 343 344 1 356 352 349 351 354 351 358 354 354 350 356 348 353 357 1 11 15 2 351 351 342 268 268 278 274 275 271 260 255 258 259 265 256 247
329 333 345 347 347 349 354 353 352 349 355 352 352 353 354 354 350 359 7 12 21 15 8 2 1 354 300 278 286 280 279 274 246 257 270 270 232 232
346 339 347 346 347 350 350 351 353 348 351 354 350 348 349 0 355 4 357 5 9 14 17 31 39 11 329 343 350 318 265 266 256 258 268 230 241 272
354 346 346 345 344 347 350 349 348 341 353 349 356 349 346 352 358 359 4 8 9 22 26 38 27 16 26 45 30 24 35 55 48 218 228 241 243 258
350 339 340 339 343 344 347 348 344 344 347 345 349 358 352 353 353 1 4 5 12 21 19 27 36 36 35 48 52 56 83 84 73 62 33 5 311 306
344 341 337 343 346 345 348 347 347 348 346 350 351 357 5 3 5 2 4 4 12 13 15 15 13 19 18 21 52 64 60 50 34 39 14 349 338 315
336 338 339 4 349 350 351 349 349 350 352 355 352 352 353 7 3 7 10 1 10 7 14 15 12 14 21 52 69 73 60 49 53 53 54 50 46 22
331 355 20 358 356 357 359 358 356 351 352 353 353 351 350 351 11 15 16 6 10 23 27 32 30 35 31 20 32 76 51 69 54 47 44 45 42 36
Wind_Speed_850mb
26 30 33 32 29 28 23 17 14 18 29 28 22 18 13 10 13 19 31 36 34 33 32 33 35 37 38 40 43 48 49 48 49 47 45 45 51 44
43 37 33 30 28 28 28 27 28 23 14 13 12 18 18 29 34 39 39 39 43 42 44 44 45 46 47 45 44 43 44 43 42 41 39 37 38 39
25 26 24 21 19 18 16 15 12 12 11 1 10 18 22 30 24 26 28 32 26 38 45 42 45 48 52 56 57 54 52 51 50 50 47 45 45 43
22 21 19 14 12 13 13 12 12 14 11 9 11 16 15 16 23 30 22 23 28 35 44 42 46 50 51 53 57 62 66 62 58 59 57 55 52 53
19 18 17 16 14 11 8 10 12 12 11 13 16 16 13 20 22 25 27 29 34 33 38 38 45 45 44 48 51 50 59 62 65 66 64 66 64 62
19 18 17 17 15 14 14 17 17 17 16 15 17 16 19 23 26 28 33 29 36 34 41 40 38 39 40 45 43 45 46 55 58 57 60 71 71 69
20 22 24 23 20 15 13 17 17 15 15 18 20 21 18 27 31 33 36 36 38 34 33 36 33 32 34 36 38 36 44 45 54 59 53 54 59 67
20 19 22 22 29 29 27 23 22 20 18 19 21 24 26 30 31 34 39 40 40 30 36 39 36 37 31 31 38 37 44 38 39 50 57 53 47 58
25 22 17 21 22 20 27 30 30 34 29 23 23 26 31 32 35 36 37 38 41 42 43 46 38 36 31 32 38 36 40 40 38 37 44 55 51 48
30 28 26 27 31 25 24 22 22 23 29 28 29 30 31 37 36 35 40 43 43 39 39 42 35 32 28 35 40 34 33 38 36 33 34 46 55 50
28 36 27 28 33 31 24 25 26 29 29 39 36 39 41 37 38 36 31 37 39 39 38 41 39 33 28 31 34 28 26 23 24 26 27 29 46 52
23 27 35 35 37 38 29 29 33 34 33 33 32 35 37 39 35 33 37 44 45 44 28 33 37 31 31 23 19 13 9 16 18 20 19 20 22 31
20 21 25 35 40 40 38 35 37 34 31 32 36 38 40 32 32 35 32 36 44 49 40 39 36 34 32 35 29 23 17 19 15 21 20 19 22 25
19 20 25 33 39 41 38 36 29 32 28 32 36 40 37 37 45 38 34 36 37 42 42 40 42 31 33 31 28 19 14 18 17 15 17 18 19 24
14 22 27 30 36 32 42 42 32 26 30 31 36 49 37 42 40 45 50 41 45 29 26 25 31 29 27 30 30 27 25 22 20 20 17 15 16 18
20 22 25 28 30 34 31 25 22 26 29 30 36 39 42 38 41 44 51 42 42 31 20 18 22 16 24 23 25 25 22 20 16 22 15 13 17 16
18 19 17 23 27 31 25 24 22 26 30 31 33 44 39 43 39 44 41 37 45 47 35 21 17 11 5 14 19 21 20 18 23 23 24 16 13 13
13 15 17 22 26 28 26 27 23 26 32 33 33 35 39 51 40 40 38 38 36 45 43 25 14 15 11 7 14 11 15 14 17 14 15 13 15 12
12 15 18 21 24 26 25 25 22 26 32 29 36 34 36 42 40 40 40 39 36 30 36 27 19 23 21 4 14 14 8 8 5 5 10 12 13 14
12 15 17 18 21 24 24 23 23 25 29 30 30 34 36 40 39 41 38 42 32 32 31 29 27 24 17 12 14 17 16 19 18 15 11 9 10 11
12 15 15 15 18 20 21 20 23 23 30 29 30 30 40 43 40 36 37 43 35 30 28 29 26 24 20 11 14 17 17 17 15 8 7 4 6 11
11 12 12 12 16 18 19 20 22 24 28 30 32 30 32 50 38 34 35 37 39 29 25 24 19 11 10 14 16 18 18 21 22 20 19 19 13 9
8 10 12 12 13 16 18 20 21 22 25 28 27 29 32 37 42 36 32 35 35 33 27 32 28 24 21 19 12 9 14 15 19 18 23 23 23 23
Wind_Direction_850mb
69 80 79 67 57 48 36 48 89 66 46 31 30 16 356 329 312 285 274 278 274 271 269 266 264 264 264 263 259 258 257 254 252 249 250 253 265 253
78 72 62 58 54 47 46 41 39 47 57 14 331 318 300 271 273 273 278 278 277 274 271 269 266 265 263 261 259 257 256 252 249 241 240 250 260 268
64 57 56 53 51 46 36 38 37 34 38 301 291 266 258 262 261 268 279 283 285 289 280 276 275 273 267 263 259 256 254 252 246 243 241 246 251 256
56 55 56 44 27 18 7 342 327 317 309 282 278 270 271 266 272 279 282 277 275 277 284 281 276 276 278 275 265 257 253 252 251 249 247 246 251 258
49 36 34 19 7 350 349 341 330 331 326 318 304 304 287 287 281 296 291 290 292 289 299 303 298 284 278 275 273 267 256 255 251 249 248 249 251 252
43 44 41 39 30 19 11 15 4 352 346 335 323 317 308 294 300 299 303 296 291 287 292 292 291 297 295 275 274 274 271 255 254 254 254 253 253 251
52 46 42 36 32 35 35 23 16 357 341 332 321 314 310 311 305 303 298 297 298 295 291 291 293 288 285 287 290 286 276 274 260 256 256 261 252 247
51 44 29 33 12 13 14 9 8 17 1 344 329 321 315 309 308 306 302 303 300 291 300 291 291 290 277 277 269 258 270 282 279 260 255 256 249 242
53 51 41 23 34 23 8 11 359 2 355 355 330 321 316 311 310 308 304 302 295 294 292 287 285 283 282 286 272 272 269 276 281 274 256 244 242 240
55 50 46 37 35 42 21 13 7 356 346 345 334 325 316 311 308 305 303 300 296 296 300 289 294 284 281 286 282 282 274 277 281 275 269 251 240 245
50 51 47 33 32 31 17 6 360 350 358 344 355 352 346 342 332 324 312 303 299 296 299 295 293 294 286 279 281 265 273 283 283 280 283 254 241 237
44 30 26 28 22 14 20 5 356 352 359 1 355 346 338 327 323 320 311 308 303 303 296 298 293 300 303 283 276 257 297 316 305 294 283 259 247 234
29 21 8 11 10 9 13 357 357 10 1 352 351 346 344 343 342 331 321 314 303 295 294 292 289 290 280 275 281 290 278 284 305 319 290 265 247 233
12 2 354 360 9 6 1 360 17 16 356 353 352 353 349 344 347 350 344 335 318 299 296 287 284 281 280 282 276 275 276 288 289 280 296 272 248 238
351 351 355 3 7 360 347 2 13 358 355 356 352 0 347 349 357 355 351 347 340 333 313 314 276 273 271 274 278 277 278 272 280 285 267 279 257 247
346 343 344 1 356 352 349 351 354 351 358 354 354 350 356 348 353 357 1 11 15 2 351 351 342 268 268 278 274 275 271 260 255 258 259 265 256 247
329 333 345 347 347 349 354 353 352 349 355 352 352 353 354 354 350 359 7 12 21 15 8 2 1 354 300 278 286 280 279 274 246 257 270 270 232 232
346 339 347 346 347 350 350 351 353 348 351 354 350 348 349 0 355 4 357 5 9 14 17 31 39 11 329 343 350 318 265 266 256 258 268 230 241 272
354 346 346 345 344 347 350 349 348 341 353 349 356 349 346 352 358 359 4 8 9 22 26 38 27 16 26 45 30 24 35 55 48 218 228 241 243 258
350 339 340 339 343 344 347 348 344 344 347 345 349 358 352 353 353 1 4 5 12 21 19 27 36 36 35 48 52 56 83 84 73 62 33 5 311 306
344 341 337 343 346 345 348 347 347 348 346 350 351 357 5 3 5 2 4 4 12 13 15 15 13 19 18 21 52 64 60 50 34 39 14 349 338 315
336 338 339 4 349 350 351 349 349 350 352 355 352 352 353 7 3 7 10 1 10 7 14 15 12 14 21 52 69 73 60 49 53 53 54 50 46 22
331 355 20 358 356 357 359 358 356 351 352 353 353 351 350 351 11 15 16 6 10 23 27 32 30 35 31 20 32 76 51 69 54 47 44 45 42 36